Latest:
 RWRWA |
  [top]

000
ASUS46 KSEW 251410
RWRWA

WASHINGTON REGIONAL WEATHER ROUNDUP
NATIONAL WEATHER SERVICE SEATTLE WA
700 AM PDT WED MAY 25 2016

NOTE:"FAIR" INDICATES FEW OR NO CLOUDS BELOW 12,000 FEET WITH NO
SIGNIFICANT WEATHER AND/OR OBSTRUCTIONS TO VISIBILITY.

WAZ505-507>509-251500-
SEATTLE, TACOMA, EVERETT, AND VICINITY

CITY           SKY/WX    TMP DP  RH WIND       PRES   REMARKS
EVERETT        CLOUDY    52  48  86 N5        30.10R
BOEING FIELD   CLOUDY    56  51  84 S5        30.10R
RENTON         CLOUDY    56  50  80 S6        30.10R
SEATAC AIRPORT CLOUDY    53  50  89 SW9       30.11R
JBLM-MCCHORD   CLOUDY    53  51  94 SW5       30.11R
PUYALLUP       CLOUDY    52  50  93 CALM      30.12R
BREMERTON      CLOUDY    52  50  93 CALM      30.12S
JBLM-FT LEWIS  CLOUDY    52  51  94 SE6       30.11R
TACOMA NARROWS CLOUDY    52  49  89 SW5       30.11S
$$

WAZ001-503-506-510-514-515-251500-
NORTH INTERIOR

CITY           SKY/WX    TMP DP  RH WIND       PRES   REMARKS
BELLINGHAM     CLOUDY    55  49  80 S9        30.07R
FRIDAY HARBOR  PTSUNNY   50  48  93 CALM      30.08S
EASTSOUND      MOSUNNY   54  48  82 S6        30.06R
PORT ANGELES   SUNNY     51  47  86 W8        30.10S
EDIZ HOOK      CLOUDY    52  47  84 W8        30.10R
PORT TOWNSEND  CLOUDY    52  50  93 CALM      30.11R
NAS WHIDBEY    PTSUNNY   54  50  86 SW12      30.13R
ARLINGTON      CLOUDY    54  43  66 NW3       30.12R
BURLINGTON     CLOUDY    54  50  87 S6        30.10R
$$

WAZ020-022-039-040-504-511-512-251500-
SOUTHWEST INTERIOR

CITY           SKY/WX    TMP DP  RH WIND       PRES   REMARKS
SHELTON        CLOUDY    52  48  86 SW12      30.09R
OLYMPIA        CLOUDY    51  47  86 CALM      30.12R
CHEHALIS       CLOUDY    52  50  93 CALM      30.13R
KELSO          CLOUDY    52  46  82 NW3       30.16S
VANCOUVER      CLOUDY    55  48  77 CALM      30.13R
SCAPPOOSE, OR  CLOUDY    51  48  89 CALM      30.12R
PORTLAND, OR   CLOUDY    56  47  71 W3        30.13R
$$

WAZ021-516-517-251500-
WASHINGTON COAST

CITY           SKY/WX    TMP DP  RH WIND       PRES   REMARKS
FORKS          CLOUDY    52  49  89 CALM      30.11S
HOQUIAM        CLOUDY    54  50  86 W7        30.13R FOG
ASTORIA, OR    CLOUDY    55  51  86 VRB3      30.13R
$$

WAZ019-023-024-040-518-519-251500-
CASCADE MOUNTAINS AND COLUMBIA GORGE

CITY           SKY/WX    TMP DP  RH WIND       PRES   REMARKS
STAMPEDE PASS  CLOUDY    43  41  93 VRB5      30.07R
TROUTDALE, OR  CLOUDY    56  47  71 CALM      30.13R
THE DALLES, OR SUNNY     58  48  69 W8        30.03R
$$

WAZ026-027-041>044-520-521-251500-
EAST SLOPES

CITY           SKY/WX    TMP DP  RH WIND       PRES   REMARKS
OMAK           SUNNY     55  46  71 CALM      29.95R
WENATCHEE      SUNNY     59  42  53 NW13      29.96S
ELLENSBURG     SUNNY     57  43  59 NW18G24   29.99R
YAKIMA         SUNNY     54  43  66 CALM      30.00R
$$

WAZ028-034-035-251500-
COLUMBIA BASIN

CITY           SKY/WX    TMP DP  RH WIND       PRES   REMARKS
EPHRATA        MOSUNNY   54  46  74 E3        29.95R
MOSES LAKE     SUNNY     52  46  80 CALM      29.97R
PASCO          SUNNY     59  46  62 S13       29.99R
HERMISTON, OR  MOSUNNY   60  45  57 SW9       30.00R
$$

WAZ036>038-251500-
NORTHEAST WASHINGTON

CITY           SKY/WX    TMP DP  RH WIND       PRES   REMARKS
SPOKANE GEIGER MOSUNNY   48  44  86 S8        29.98R
SPOKANE FELTS  PTSUNNY   51  47  86 NE3       29.99R
FAIRCHILD AFB  SUNNY     51  48  90 S9        29.97R
COEURDALENE,ID PTSUNNY   48  46  93 SE9       29.97R
DEER PARK      MOSUNNY   47  45  93 CALM      29.99R
$$

WAZ029>033-251500-
SOUTHEAST WASHINGTON

CITY           SKY/WX    TMP DP  RH WIND       PRES   REMARKS
PULLMAN        PTSUNNY   53  48  83 CALM      30.02R
LEWISTON, ID   CLOUDY    51  47  86 CALM      30.01R
WALLA WALLA    SUNNY     56  45  66 S7        30.01R
PENDLETON, OR  SUNNY     51  43  74 S6        30.02R
$$





000
ASUS46 KSEW 251210
RWRWA

WASHINGTON REGIONAL WEATHER ROUNDUP
NATIONAL WEATHER SERVICE SEATTLE WA
500 AM PDT WED MAY 25 2016

NOTE:"FAIR" INDICATES FEW OR NO CLOUDS BELOW 12,000 FEET WITH NO
SIGNIFICANT WEATHER AND/OR OBSTRUCTIONS TO VISIBILITY.

WAZ505-507>509-251300-
SEATTLE, TACOMA, EVERETT, AND VICINITY

CITY           SKY/WX    TMP DP  RH WIND       PRES   REMARKS
EVERETT        CLOUDY    52  48  86 N3        30.08R
6HR MIN TEMP:  52; 6HR MAX TEMP:  54;

BOEING FIELD   CLOUDY    56  51  84 SW3       30.07R
6HR MIN TEMP:  56; 6HR MAX TEMP:  60;

RENTON         CLOUDY    57  50  77 S5        30.07R
6HR MIN TEMP:  57; 6HR MAX TEMP:  61;

SEATAC AIRPORT CLOUDY    54  50  86 SW5       30.08R
6HR MIN TEMP:  54; 6HR MAX TEMP:  58;

JBLM-MCCHORD   CLOUDY    53  51  95 S5        30.08R
6HR MIN TEMP:  52; 6HR MAX TEMP:  57;

PUYALLUP       CLOUDY    54  50  87 CALM      30.08S
BREMERTON      CLOUDY    52  50  93 CALM      30.09S
6HR MIN TEMP:  48; 6HR MAX TEMP:  55;

JBLM-FT LEWIS  CLOUDY    51  51  99 SE2       30.08R
6HR MIN TEMP:  50; 6HR MAX TEMP:  56;

TACOMA NARROWS CLOUDY    52  49  89 CALM      30.09R
6HR MIN TEMP:  52; 6HR MAX TEMP:  57;

$$

WAZ001-503-506-510-514-515-251300-
NORTH INTERIOR

CITY           SKY/WX    TMP DP  RH WIND       PRES   REMARKS
BELLINGHAM     MOCLDY    53  49  86 S10       30.05R
6HR MIN TEMP:  52; 6HR MAX TEMP:  57;

FRIDAY HARBOR  MOCLDY    45  44  97 CALM      30.06R
6HR MIN TEMP:  43; 6HR MAX TEMP:  49;

EASTSOUND      PTCLDY    52  48  87 S5        30.03R
PORT ANGELES   CLEAR     49  46  90 W7        30.08R
6HR MIN TEMP:  49; 6HR MAX TEMP:  52;

EDIZ HOOK      FAIR      51  47  88 W9        30.08R
6HR MIN TEMP:  51; 6HR MAX TEMP:  53;

PORT TOWNSEND  CLOUDY    46  46 100 CALM      30.08R
NAS WHIDBEY    MOCLDY    53  50  89 SW10      30.11R
6HR MIN TEMP:  52; 6HR MAX TEMP:  53;

ARLINGTON      CLOUDY    52  43  71 CALM      30.09R
6HR MIN TEMP:  52; 6HR MAX TEMP:  55;

BURLINGTON     CLOUDY    52  48  87 S3        30.08R
$$

WAZ020-022-039-040-504-511-512-251300-
SOUTHWEST INTERIOR

CITY           SKY/WX    TMP DP  RH WIND       PRES   REMARKS
SHELTON        CLOUDY    50  48  93 SW7       30.06R
6HR MIN TEMP:  50; 6HR MAX TEMP:  53;

OLYMPIA        CLOUDY    46  45  96 CALM      30.09R
6HR MIN TEMP:  42; 6HR MAX TEMP:  51;

CHEHALIS       CLOUDY    48  48 100 CALM      30.10R
KELSO          CLOUDY    52  45  76 CALM      30.13S
6HR MIN TEMP:  52; 6HR MAX TEMP:  55;

VANCOUVER      CLOUDY    55  46  71 CALM      30.09R
6HR MIN TEMP:  54; 6HR MAX TEMP:  58;

SCAPPOOSE, OR  PTCLDY    50  45  83 CALM      30.09R
6HR MIN TEMP:  48; 6HR MAX TEMP:  55;

PORTLAND, OR   CLOUDY    55  46  71 CALM      30.10R
6HR MIN TEMP:  55; 6HR MAX TEMP:  58;

$$

WAZ021-516-517-251300-
WASHINGTON COAST

CITY           SKY/WX    TMP DP  RH WIND       PRES   REMARKS
FORKS          CLOUDY    51  49  92 CALM      30.09S
6HR MIN TEMP:  45; 6HR MAX TEMP:  51;

HOQUIAM        CLOUDY    53  51  93 NW7       30.10R
6HR MIN TEMP:  52; 6HR MAX TEMP:  53;

ASTORIA, OR    CLOUDY    55  50  83 NW7       30.10R
6HR MIN TEMP:  55; 6HR MAX TEMP:  56; 6HR PCP: TRACE;

$$

WAZ019-023-024-040-518-519-251300-
CASCADE MOUNTAINS AND COLUMBIA GORGE

CITY           SKY/WX    TMP DP  RH WIND       PRES   REMARKS
STAMPEDE PASS  CLOUDY    43  41  93 VRB6      30.05R
6HR MIN TEMP:  43; 6HR MAX TEMP:  44;

TROUTDALE, OR  CLOUDY    55  46  71 CALM      30.10R
6HR MIN TEMP:  55; 6HR MAX TEMP:  60;

THE DALLES, OR CLEAR     56  47  71 NW6       30.01R
6HR MIN TEMP:  56; 6HR MAX TEMP:  64;

$$

WAZ026-027-041>044-520-521-251300-
EAST SLOPES

CITY           SKY/WX    TMP DP  RH WIND       PRES   REMARKS
OMAK           CLEAR     48  44  86 W7        29.93R
6HR MIN TEMP:  47; 6HR MAX TEMP:  58;

WENATCHEE      CLEAR     55  42  61 NW8       29.95R
6HR MIN TEMP:  54; 6HR MAX TEMP:  60;

ELLENSBURG     CLEAR     53  42  66 NW15      29.97R
6HR MIN TEMP:  53; 6HR MAX TEMP:  56;

YAKIMA         CLEAR     44  38  79 W6        29.97R
6HR MIN TEMP:  44; 6HR MAX TEMP:  64;

$$

WAZ028-034-035-251300-
COLUMBIA BASIN

CITY           SKY/WX    TMP DP  RH WIND       PRES   REMARKS
EPHRATA        CLEAR     57  43  59 NW6       29.93R
6HR MIN TEMP:  56; 6HR MAX TEMP:  63;

MOSES LAKE     PTCLDY    49  44  83 CALM      29.94R
6HR MIN TEMP:  48; 6HR MAX TEMP:  59;

PASCO          CLEAR     56  47  71 SW7       29.97R
6HR MIN TEMP:  50; 6HR MAX TEMP:  63;

HERMISTON, OR  CLEAR     52  43  71 S6        29.97R
6HR MIN TEMP:  52; 6HR MAX TEMP:  58;

$$

WAZ036>038-251300-
NORTHEAST WASHINGTON

CITY           SKY/WX    TMP DP  RH WIND       PRES   REMARKS
SPOKANE GEIGER PTCLDY    49  45  86 S6        29.95R
6HR MIN TEMP:  49; 6HR MAX TEMP:  55;

SPOKANE FELTS  CLOUDY    48  46  93 CALM      29.97R
6HR MIN TEMP:  47; 6HR MAX TEMP:  52;

FAIRCHILD AFB  PTCLDY    46  46  98 E3        29.95R
6HR MIN TEMP:  46; 6HR MAX TEMP:  55;

COEURDALENE,ID CLOUDY    48  46  93 SE6       29.95R VSB 1/4
6HR MIN TEMP:  43; 6HR MAX TEMP:  54;

DEER PARK      PTCLDY    40  38  93 NE5       29.97R FOG
6HR MIN TEMP:  38; 6HR MAX TEMP:  47;

$$

WAZ029>033-251300-
SOUTHEAST WASHINGTON

CITY           SKY/WX    TMP DP  RH WIND       PRES   REMARKS
PULLMAN        CLOUDY    47  44  90 CALM      29.99R
6HR MIN TEMP:  45; 6HR MAX TEMP:  50;

LEWISTON, ID   CLEAR     49  45  86 SE3       29.98R
6HR MIN TEMP:  49; 6HR MAX TEMP:  56;

WALLA WALLA    CLEAR     52  44  74 S7        29.98R
6HR MIN TEMP:  51; 6HR MAX TEMP:  59;

PENDLETON, OR  CLEAR     49  42  77 SE6       29.99R
6HR MIN TEMP:  48; 6HR MAX TEMP:  58;

$$





000
ASUS46 KSEW 251110
RWRWA

WASHINGTON REGIONAL WEATHER ROUNDUP
NATIONAL WEATHER SERVICE SEATTLE WA
400 AM PDT WED MAY 25 2016

NOTE:"FAIR" INDICATES FEW OR NO CLOUDS BELOW 12,000 FEET WITH NO
SIGNIFICANT WEATHER AND/OR OBSTRUCTIONS TO VISIBILITY.

WAZ505-507>509-251200-
SEATTLE, TACOMA, EVERETT, AND VICINITY

CITY           SKY/WX    TMP DP  RH WIND       PRES   REMARKS
EVERETT        CLOUDY    53  48  83 NW3       30.07R
BOEING FIELD   CLOUDY    58  50  75 CALM      30.06R
RENTON         CLOUDY    58  51  78 S6        30.06R
SEATAC AIRPORT CLOUDY    54  50  86 CALM      30.07R
JBLM-MCCHORD   CLOUDY    54  51  91 S5        30.07R
PUYALLUP       CLOUDY    54  52  94 CALM      30.08R
BREMERTON      CLOUDY    50  50 100 CALM      30.08F
JBLM-FT LEWIS  CLOUDY    52  51  99 SE5       30.07R
TACOMA NARROWS CLOUDY    53  49  86 SW3       30.07S
$$

WAZ001-503-506-510-514-515-251200-
NORTH INTERIOR

CITY           SKY/WX    TMP DP  RH WIND       PRES   REMARKS
BELLINGHAM     CLEAR     53  48  83 S5        30.04R
FRIDAY HARBOR  PTCLDY    44  43  96 CALM      30.05R
EASTSOUND      PTCLDY    52  48  87 S6        30.02S
PORT ANGELES   CLEAR     49  46  90 W9        30.07R
EDIZ HOOK      FAIR      51  47  87 W13       30.07R
PORT TOWNSEND  FAIR      48  46  93 CALM      30.07S
NAS WHIDBEY    PTCLDY    52  49  89 SW12      30.09S
ARLINGTON      CLOUDY    52  43  71 NW8       30.08S
BURLINGTON     CLOUDY    48  48 100 CALM      30.06S
$$

WAZ020-022-039-040-504-511-512-251200-
SOUTHWEST INTERIOR

CITY           SKY/WX    TMP DP  RH WIND       PRES   REMARKS
SHELTON        CLOUDY    50  48  93 SW8       30.05S
OLYMPIA        MOCLDY    44  42  93 CALM      30.07S
CHEHALIS       CLOUDY    52  48  87 SW3       30.09S
KELSO          CLOUDY    54  45  71 N3        30.12S
VANCOUVER      CLOUDY    54  46  74 CALM      30.08R
SCAPPOOSE, OR  CLOUDY    50  45  83 CALM      30.08R
PORTLAND, OR   CLOUDY    55  46  71 NW3       30.09R
$$

WAZ021-516-517-251200-
WASHINGTON COAST

CITY           SKY/WX    TMP DP  RH WIND       PRES   REMARKS
FORKS          CLOUDY    51  49  92 CALM      30.09R
HOQUIAM        CLOUDY    53  51  93 NW7       30.09S
ASTORIA, OR    CLOUDY    55  50  83 NW9       30.09S
$$

WAZ019-023-024-040-518-519-251200-
CASCADE MOUNTAINS AND COLUMBIA GORGE

CITY           SKY/WX    TMP DP  RH WIND       PRES   REMARKS
STAMPEDE PASS  CLOUDY    43  41  93 VRB5      30.04S
TROUTDALE, OR  CLOUDY    56  46  69 VRB3      30.08R
THE DALLES, OR CLEAR     56  47  71 W5        29.99R
$$

WAZ026-027-041>044-520-521-251200-
EAST SLOPES

CITY           SKY/WX    TMP DP  RH WIND       PRES   REMARKS
OMAK           PTCLDY    48  44  86 NW6       29.92S
WENATCHEE      CLEAR     55  43  63 NW7       29.94S
ELLENSBURG     CLEAR     54  42  64 NW15      29.96S
YAKIMA         CLEAR     48  39  71 CALM      29.96S
$$

WAZ028-034-035-251200-
COLUMBIA BASIN

CITY           SKY/WX    TMP DP  RH WIND       PRES   REMARKS
EPHRATA        MOCLDY    57  43  59 NW12      29.91S
MOSES LAKE     CLEAR     49  44  83 CALM      29.93R
PASCO          CLEAR     52  45  77 CALM      29.95R
HERMISTON, OR  CLEAR     55  44  66 SW7       29.96R
$$

WAZ036>038-251200-
NORTHEAST WASHINGTON

CITY           SKY/WX    TMP DP  RH WIND       PRES   REMARKS
SPOKANE GEIGER MOCLDY    49  45  86 S6        29.94F
SPOKANE FELTS  MOCLDY    48  46  93 NE5       29.96R
FAIRCHILD AFB  PTCLDY    48  46  95 VRB2      29.94S
COEURDALENE,ID MOCLDY    45  41  87 CALM      29.94S
DEER PARK      FOG       39  38  96 CALM      29.96S VSB 1/4
$$

WAZ029>033-251200-
SOUTHEAST WASHINGTON

CITY           SKY/WX    TMP DP  RH WIND       PRES   REMARKS
PULLMAN        CLOUDY    47  44  90 CALM      29.98S
LEWISTON, ID   PTCLDY    49  45  86 SE3       29.96S
WALLA WALLA    CLEAR     52  44  74 S7        29.97R
PENDLETON, OR  CLEAR     50  42  74 SE6       29.98R
$$





000
ASUS46 KSEW 250910
RWRWA

WASHINGTON REGIONAL WEATHER ROUNDUP
NATIONAL WEATHER SERVICE SEATTLE WA
200 AM PDT WED MAY 25 2016

NOTE:"FAIR" INDICATES FEW OR NO CLOUDS BELOW 12,000 FEET WITH NO
SIGNIFICANT WEATHER AND/OR OBSTRUCTIONS TO VISIBILITY.

WAZ505-507>509-251000-
SEATTLE, TACOMA, EVERETT, AND VICINITY

CITY           SKY/WX    TMP DP  RH WIND       PRES   REMARKS
EVERETT        CLOUDY    53  47  79 N6        30.05S
BOEING FIELD   CLOUDY    59  51  75 N3        30.05R
RENTON         CLOUDY    59  52  77 NW5       30.04R
SEATAC AIRPORT MOCLDY    56  51  84 SW3       30.05S
JBLM-MCCHORD   CLOUDY    55  51  86 S2        30.06R
PUYALLUP       CLOUDY    54  52  94 CALM      30.06S
BREMERTON      CLEAR     50  48  93 CALM      30.07R
JBLM-FT LEWIS  CLOUDY    50  50  99 SE5       30.05S
TACOMA NARROWS CLOUDY    54  49  83 S3        30.05S
$$

WAZ001-503-506-510-514-515-251000-
NORTH INTERIOR

CITY           SKY/WX    TMP DP  RH WIND       PRES   REMARKS
BELLINGHAM     PTCLDY    55  50  83 S7        30.02S
FRIDAY HARBOR  CLEAR     45  44  97 W3        30.03S
EASTSOUND      CLEAR     54  48  82 S6        30.01R
PORT ANGELES   CLEAR     50  47  89 W9        30.05S
EDIZ HOOK      FAIR      51  48  89 W14       30.05S
PORT TOWNSEND  FAIR      46  46 100 CALM      30.06R
NAS WHIDBEY    PTCLDY    53  50  89 SW10      30.08S
ARLINGTON      CLOUDY    54  45  71 NW3       30.07S
BURLINGTON     CLEAR     48  48 100 CALM      30.05S
$$

WAZ020-022-039-040-504-511-512-251000-
SOUTHWEST INTERIOR

CITY           SKY/WX    TMP DP  RH WIND       PRES   REMARKS
SHELTON        CLOUDY    51  48  89 SW8       30.04R
OLYMPIA        CLEAR     44  42  93 S3        30.06R
CHEHALIS       CLOUDY    54  50  87 CALM      30.07S
KELSO          CLOUDY    54  46  76 NE3       30.11R
VANCOUVER      CLOUDY    55  46  71 VRB5      30.06R
SCAPPOOSE, OR  PTCLDY    53  45  74 N3        30.05S
PORTLAND, OR   MOCLDY    55  46  71 NW3       30.06R
$$

WAZ021-516-517-251000-
WASHINGTON COAST

CITY           SKY/WX    TMP DP  RH WIND       PRES   REMARKS
FORKS          CLOUDY    50  48  93 CALM      30.08R
HOQUIAM        CLEAR     53  51  93 W7        30.08R FOG
ASTORIA, OR    CLOUDY    56  49  77 NW5       30.08S
$$

WAZ019-023-024-040-518-519-251000-
CASCADE MOUNTAINS AND COLUMBIA GORGE

CITY           SKY/WX    TMP DP  RH WIND       PRES   REMARKS
STAMPEDE PASS  CLOUDY    43  41  93 VRB5      30.04R
TROUTDALE, OR  PTCLDY    55  46  71 CALM      30.06R
THE DALLES, OR CLEAR     59  47  64 NW8       29.97R
$$

WAZ026-027-041>044-520-521-251000-
EAST SLOPES

CITY           SKY/WX    TMP DP  RH WIND       PRES   REMARKS
OMAK           PTCLDY    54  45  71 CALM      29.91R
WENATCHEE      CLEAR     57  43  59 NW9       29.94R
ELLENSBURG     CLEAR     54  43  66 NW14G22   29.95S
YAKIMA         CLEAR     59  41  51 NW6       29.96R
$$

WAZ028-034-035-251000-
COLUMBIA BASIN

CITY           SKY/WX    TMP DP  RH WIND       PRES   REMARKS
EPHRATA        CLEAR     58  43  57 NW12      29.91R
MOSES LAKE     MOCLDY    51  45  79 W5        29.92R
PASCO          CLEAR     57  48  72 CALM      29.93R
HERMISTON, OR  CLEAR     58  44  60 SW12      29.94R
$$

WAZ036>038-251000-
NORTHEAST WASHINGTON

CITY           SKY/WX    TMP DP  RH WIND       PRES   REMARKS
SPOKANE GEIGER PTCLDY    51  45  79 CALM      29.94R
SPOKANE FELTS  CLEAR     49  46  90 NE3       29.95R
FAIRCHILD AFB  PTCLDY    49  47  91 SE5       29.94R
COEURDALENE,ID PTCLDY    48  45  87 SE6       29.93R
DEER PARK      MOCLDY    42  41  96 CALM      29.95R FOG
$$

WAZ029>033-251000-
SOUTHEAST WASHINGTON

CITY           SKY/WX    TMP DP  RH WIND       PRES   REMARKS
PULLMAN        CLEAR     49  44  83 NE5       29.97R
LEWISTON, ID   CLEAR     51  45  79 S3        29.95R
WALLA WALLA    PTCLDY    54  44  69 S7        29.95R
PENDLETON, OR  CLEAR     53  42  66 S5        29.96R
$$





000
ASUS46 KSEW 250710
RWRWA

WASHINGTON REGIONAL WEATHER ROUNDUP
NATIONAL WEATHER SERVICE SEATTLE WA
1200 AM PDT WED MAY 25 2016

NOTE:"FAIR" INDICATES FEW OR NO CLOUDS BELOW 12,000 FEET WITH NO
SIGNIFICANT WEATHER AND/OR OBSTRUCTIONS TO VISIBILITY.

WAZ505-507>509-250800-
SEATTLE, TACOMA, EVERETT, AND VICINITY

CITY           SKY/WX    TMP DP  RH WIND       PRES   REMARKS
EVERETT        PTCLDY    53  47  79 N7        30.05R
BOEING FIELD   CLOUDY    60  52  74 CALM      30.03R
RENTON         CLOUDY    60  53  77 W8        30.02S
SEATAC AIRPORT CLOUDY    56  51  84 CALM      30.04S
JBLM-MCCHORD   CLOUDY    56  51  82 W6        30.04S
PUYALLUP       CLOUDY    55  52  88 CALM      30.05R
BREMERTON      CLOUDY    55  52  88 CALM      30.07R
JBLM-FT LEWIS  CLOUDY    55  51  86 VRB1      30.04R
TACOMA NARROWS CLOUDY    55  48  77 SW3       30.05R
$$

WAZ001-503-506-510-514-515-250800-
NORTH INTERIOR

CITY           SKY/WX    TMP DP  RH WIND       PRES   REMARKS
BELLINGHAM     CLEAR     55  51  86 SE5       30.02R
FRIDAY HARBOR  PTCLDY    48  45  89 CALM      30.03R
EASTSOUND      CLEAR     54  48  82 S12       29.99S
PORT ANGELES   MOCLDY    52  48  86 W12       30.05R
EDIZ HOOK      CLOUDY    52  48  86 W8        30.05R
PORT TOWNSEND  CLOUDY    54  50  87 CALM      30.05R
NAS WHIDBEY    PTCLDY    53  49  86 SW3       30.08R
ARLINGTON      CLOUDY    54  43  66 CALM      30.06S
BURLINGTON     PTCLDY    52  48  87 S6        30.04S
$$

WAZ020-022-039-040-504-511-512-250800-
SOUTHWEST INTERIOR

CITY           SKY/WX    TMP DP  RH WIND       PRES   REMARKS
SHELTON        CLOUDY    53  48  83 SW12      30.02R
OLYMPIA        CLEAR     49  45  86 CALM      30.04S
CHEHALIS       CLOUDY    54  50  87 SW5       30.06S
KELSO          CLOUDY    55  46  71 NW3       30.09S
VANCOUVER      PTCLDY    56  47  71 NW3       30.04R
SCAPPOOSE, OR  CLEAR     54  45  71 N6        30.04R
PORTLAND, OR   PTCLDY    57  47  69 NW10      30.05R
$$

WAZ021-516-517-250800-
WASHINGTON COAST

CITY           SKY/WX    TMP DP  RH WIND       PRES   REMARKS
FORKS          CLOUDY    45  44  97 CALM      30.07S
HOQUIAM        CLEAR     53  51  93 W6        30.07R FOG
ASTORIA, OR    CLOUDY    55  50  83 W6        30.07S
$$

WAZ019-023-024-040-518-519-250800-
CASCADE MOUNTAINS AND COLUMBIA GORGE

CITY           SKY/WX    TMP DP  RH WIND       PRES   REMARKS
STAMPEDE PASS  CLOUDY    43  41  93 VRB5      30.03S
TROUTDALE, OR  CLEAR     57  46  66 VRB3      30.04R
THE DALLES, OR CLEAR     61  46  57 NW12G21   29.95S
$$

WAZ026-027-041>044-520-521-250800-
EAST SLOPES

CITY           SKY/WX    TMP DP  RH WIND       PRES   REMARKS
OMAK           CLOUDY    57  47  69 S7        29.89S
WENATCHEE      CLEAR     59  42  53 NW8       29.93R
ELLENSBURG     CLEAR     55  43  63 NW14G24   29.94S
YAKIMA         CLEAR     60  41  49 VRB3      29.94R
$$

WAZ028-034-035-250800-
COLUMBIA BASIN

CITY           SKY/WX    TMP DP  RH WIND       PRES   REMARKS
EPHRATA        CLEAR     60  43  53 N6        29.90R
MOSES LAKE     CLEAR     57  47  69 CALM      29.90R
PASCO          CLEAR     57  47  69 CALM      29.91R
HERMISTON, OR  CLEAR     58  45  62 SW10      29.91R
$$

WAZ036>038-250800-
NORTHEAST WASHINGTON

CITY           SKY/WX    TMP DP  RH WIND       PRES   REMARKS
SPOKANE GEIGER PTCLDY    53  46  77 S6        29.93S
SPOKANE FELTS  CLEAR     50  46  86 CALM      29.94S
FAIRCHILD AFB  MOCLDY    52  50  93 SE2       29.93S
COEURDALENE,ID CLEAR     48  45  87 E3        29.92S
DEER PARK      CLEAR     44  42  93 MISG      29.94S
$$

WAZ029>033-250800-
SOUTHEAST WASHINGTON

CITY           SKY/WX    TMP DP  RH WIND       PRES   REMARKS
PULLMAN        CLEAR     50  45  83 NE5       29.96S
LEWISTON, ID   CLEAR     54  45  71 S6        29.93R
WALLA WALLA    CLEAR     58  44  60 S12       29.92R
PENDLETON, OR  CLEAR     58  42  55 SW10G23   29.94R
$$





    US Dept of Commerce
    National Oceanic and Atmospheric Administration
    National Weather Service
    1325 East West Highway
    Silver Spring, MD 20910
    Page Author: NWS Internet Services Team
Disclaimer
Information Quality
Credits
Glossary
Privacy Policy
Freedom of Information Act (FOIA)
About Us
Career Opportunities